Location: Lake_James_State_Park
(35.7270°N, 81.9020°W)
Time: 17:46:43
(UTC-05:00)

Daily predictions for brighter satellites

Satellite Brightness Start Highest point End
(mag) Time Altitude Azimuth Time Altitude Azimuth Time Altitude Azimuth
Cosmos 1709 Rocket 4.0 18:35:54 10° S 18:42:06 74° E 18:48:13 10° N
METEOR-M 4.4 18:39:18 10° SE 18:44:24 48° ENE 18:49:30 10° N
Cosmos 1484 Rocket 3.8 18:43:14 10° S 18:47:06 53° W 18:50:56 10° NNW
Cosmos 2151 Rocket 4.4 18:43:14 10° SSW 18:47:39 57° W 18:52:08 10° N
ASTRO F (AKARI) 4.3 18:44:27 10° NNE 18:47:54 75° ESE 18:51:09 10° S
OTV 4 1.6 18:45:52 10° SW 18:48:33 30° SSE 18:51:13 10° E
Cosmos 1025 Rocket 4.3 18:46:09 10° NNE 18:49:28 21° ENE 18:52:46 10° SE
Cosmos 2322 3.7 18:52:50 10° NNW 18:58:34 74° ENE 19:04:14 10° SSE
DELTA 2 R/B (1) 3.9 18:53:09 10° WNW 18:58:44 66° SSW 19:04:16 10° SE
Hubble Space Telescope 2.4 18:56:49 10° SW 19:00:07 23° SSE 19:03:25 10° ESE
BREEZE-M DEB (TANK) 2.6 18:57:13 10° SW 19:02:51 87° SE 19:05:20 10° NE
Cosmos 1850 Rocket 4.0 18:59:06 10° SSW 19:04:24 84° ESE 19:09:45 10° NNE
SJ-6B 2.9 19:03:58 10° SSE 19:07:52 56° ENE 19:11:43 10° N
CZ-3C R/B 3.4 18:59:42 10° WSW 19:08:02 20° SSW 19:11:28 10° SSE
Cosmos 2208 Rocket 4.3 19:02:58 10° N 19:08:16 49° ENE 19:13:28 10° SE
Meteor 1-19 Rocket 4.2 19:03:22 10° N 19:09:07 79° E 19:14:54 10° SSE
ALOS 2.6 19:07:07 10° SE 19:11:31 43° ENE 19:15:56 10° N
Cosmos 405 Rocket 4.3 19:09:26 10° NNE 19:12:14 18° ENE 19:13:12 16° E
Cosmos 2297 Rocket 3.5 19:09:01 10° SE 19:12:31 17° E 19:14:23 15° ENE
HJ-1C 4.0 19:09:40 10° SE 19:12:46 35° ENE 19:15:52 10° N
Cosmos 2237 Rocket 3.7 19:09:15 10° NNE 19:12:49 17° NE 19:14:36 15° ENE
H-2A R/B 3.7 19:11:37 10° SE 19:14:42 25° ENE 19:17:48 10° NNE
Cosmos 2237 4.2 19:11:30 10° NNW 19:17:14 70° ENE 19:22:55 10° SSE
COSMOS 2428 2.8 19:11:47 10° NNW 19:17:22 54° ENE 19:22:54 10° SE
Okean 1-7 Rocket 3.5 19:15:54 10° N 19:20:23 64° E 19:24:48 10° SSE
Meteor 2-4 Rocket 3.5 19:17:38 10° N 19:23:07 73° E 19:28:28 10° SSE
Cosmos 2285 Rocket 4.3 19:18:09 10° N 19:24:19 46° ENE 19:30:24 10° SE
Cosmos 2219 Rocket 2.8 19:20:23 10° N 19:25:28 34° ENE 19:28:57 18° ESE
Cosmos 2360 Rocket 3.0 19:20:08 10° NNW 19:25:39 56° WSW 19:31:09 10° S
Meteor 1-23 Rocket 4.2 19:23:08 10° N 19:28:54 67° E 19:34:33 10° SSE
Okean 2 3.9 19:26:03 10° N 19:29:58 38° E 19:33:52 10° SSE
Cosmos 2219 3.6 19:24:58 10° SSW 19:30:41 67° WNW 19:36:25 10° NNE
OAO 3 Rocket 4.1 19:26:46 10° SW 19:31:13 34° SSE 19:33:19 24° ESE
FREGAT/IRIS 3.4 19:28:39 10° S 19:31:40 54° W 19:34:43 10° NNW
Cosmos 2227 Rocket 2.7 19:27:37 10° SSE 19:32:41 35° ESE 19:37:48 10° NE
Atlas Centaur 2 3.9 19:26:51 10° SSW 19:32:44 24° SSE 19:35:47 18° ESE
Helios 1A 3.9 19:33:28 26° ENE 19:33:38 26° ENE 19:37:07 10° NNE
Abrixas rocket 4.2 19:32:09 10° W 19:34:59 25° NNW 19:37:11 14° NNE
Helios 1B rocket 3.0 19:33:08 10° NNE 19:36:55 33° E 19:40:41 10° SSE
Cosmos 1536 3.9 19:34:21 10° SSW 19:38:11 47° W 19:42:03 10° N
SAR-Lupe-4 4.2 19:44:53 35° NE 19:44:53 35° NE 19:47:38 10° N
Cosmos 1455 Rocket 3.4 19:40:58 10° SSE 19:45:01 38° E 19:49:05 10° NNE
SL-16 R/B 4.1 19:45:38 10° NNE 19:47:22 13° NE 19:47:22 13° NE
Resurs 01 Rocket 1.7 19:53:48 10° S 19:58:12 76° WSW 20:02:36 10° NNW
Cosmos 1610 Rocket 4.5 19:58:05 10° S 20:04:19 85° W 20:10:31 10° N
ATLAS 2A CENTAUR R/B 3.9 20:05:00 10° SW 20:08:03 21° S 20:10:06 19° SSE
Resurs 1-3 3.8 20:04:16 10° S 20:08:36 69° WSW 20:13:00 10° NNW
FENGYUN 3A 4.5 20:04:27 10° S 20:09:41 51° W 20:14:58 10° NNW
Cosmos 2333 Rocket 2.1 20:05:48 10° NNW 20:11:33 68° ENE 20:12:59 49° SE
Cosmos 1980 3.7 20:07:00 10° NNW 20:12:33 54° ENE 20:12:50 54° ENE
GEOS 3 Rocket 4.0 20:08:20 11° NNE 20:13:19 63° NW 20:18:32 10° SW
GPS 2-04 Rocket1 2.8 20:10:02 10° W 20:14:12 85° W 20:14:12 85° W
OTV 4 3.1 20:21:31 10° W 20:22:38 20° W 20:22:38 20° W
Cosmos 1892 Rocket 4.0 20:20:33 10° NNW 20:24:51 60° W 20:26:07 41° SSW
Cosmos 468 Rocket 4.1 20:22:23 10° NNW 20:27:38 75° WSW 20:28:52 53° S
USA 229 DEB 4.1 20:24:04 10° NW 20:31:08 64° WSW 20:35:24 26° S
USA 229 4.1 20:24:09 10° NW 20:31:14 64° WSW 20:35:25 27° S
Cosmos 2082 3.8 20:29:10 10° SSW 20:34:52 74° WNW 20:37:59 28° NNE
Hubble Space Telescope 3.0 20:37:18 10° WSW 20:38:56 20° SW 20:38:56 20° SW
NOSS 3-1 (A) 4.1 20:36:25 10° NNW 20:44:02 58° NE 20:44:06 58° ENE
Envisat 4.2 20:47:02 34° N 20:47:02 34° N 20:49:51 10° NNW
ATLAS 2AS CENTAUR R/B 4.5 20:43:11 10° N 20:48:06 21° NNE 20:48:06 21° NNE
Cosmos 2297 Rocket 2.7 20:50:29 10° SW 20:56:00 56° WNW 20:56:25 54° NW
Cosmos 2237 Rocket 2.7 20:51:43 10° NNW 20:56:29 57° WNW 20:56:29 57° WNW
NOSS 3-1 (C) 3.9 20:54:06 10° NNW 21:01:55 90° WSW 21:02:16 84° SSE
H-2A R/B 4.0 21:02:55 10° SW 21:42:31 13° E 21:53:12 10° E
H-2A R/B 4.0 21:02:56 10° SW 21:42:31 13° E 21:53:12 10° E
H-2A R/B 4.0 21:02:56 10° SW 21:42:32 13° E 21:53:12 10° E
H-2A R/B 4.0 21:02:56 10° SW 21:42:30 13° E 21:53:12 10° E
Cosmos 2219 Rocket 3.9 21:04:31 10° NW 21:09:13 28° WSW 21:10:47 25° SW
Cosmos 2227 Rocket 4.0 21:11:56 10° WSW 21:16:44 28° WNW 21:20:36 14° N
Atlas Centaur 2 4.1 21:15:15 10° WSW 21:18:27 25° SW 21:18:27 25° SW
SL-16 R/B 4.3 21:27:36 10° NNW 21:29:17 20° NNW 21:29:17 20° NNW
